Location: *
(48.4333°N, 5.0333°W)
Time: 09:15:34
(UTC+00:00)

SL-4 R/B - Visible Passes

Search period start: 13 August 2020 00:00
Search period end: 23 August 2020 00:00
Orbit: 428 x 666 km, 51.6° (Epoch: 12 August)

Date Brightness Start Highest point End Pass type
(mag) Time Alt. Az. Time Alt. Az. Time Alt. Az.
13 Aug 1.8 20:09:48 10° WSW 20:13:54 81° SSE 20:17:40 10° ENE visible
13 Aug 2.5 21:49:52 10° W 21:53:40 51° N 21:55:57 20° ENE visible
13 Aug 3.7 23:29:51 10° WNW 23:31:31 24° WNW 23:31:31 24° WNW visible
14 Aug 2.5 21:43:29 10° WNW 21:47:18 50° N 21:49:28 21° ENE visible
14 Aug 3.7 23:23:24 10° WNW 23:25:02 24° WNW 23:25:02 24° WNW visible
15 Aug 2.5 21:37:06 10° WNW 21:40:56 51° N 21:42:58 23° ENE visible
15 Aug 3.8 23:16:58 10° WNW 23:18:33 23° WNW 23:18:33 23° WNW visible
16 Aug 2.4 21:30:42 10° WNW 21:34:33 53° N 21:36:29 24° ENE visible
16 Aug 3.8 23:10:33 10° WNW 23:12:02 22° WNW 23:12:02 22° WNW visible
17 Aug 2.3 21:24:17 10° WNW 21:28:10 56° N 21:29:59 26° ENE visible
17 Aug 3.9 23:04:07 10° WNW 23:05:34 21° WNW 23:05:34 21° WNW visible
18 Aug 2.1 21:17:51 10° WNW 21:21:47 61° NNE 21:23:31 28° E visible
18 Aug 3.9 22:57:43 10° WNW 22:59:05 20° W 22:59:05 20° W visible
19 Aug 2.0 21:11:26 10° WNW 21:15:23 68° NNE 21:17:03 30° E visible
19 Aug 4.0 22:51:21 10° WNW 22:52:38 18° W 22:52:38 18° W visible
20 Aug 1.8 21:04:59 10° WNW 21:08:58 78° NNE 21:10:37 31° E visible
20 Aug 4.1 22:45:01 10° W 22:46:11 17° W 22:46:11 17° W visible
21 Aug 1.7 20:58:33 10° WNW 21:02:32 90° SSW 21:04:12 32° ESE visible
21 Aug 4.2 22:38:46 10° W 22:39:46 15° W 22:39:46 15° W visible
22 Aug 1.8 20:52:06 10° WNW 20:56:06 76° SSW 20:57:49 30° SE visible
22 Aug 4.4 22:32:37 10° W 22:33:23 13° WSW 22:33:23 13° WSW visible
